Reflectivity
-20 -20 -20 -20 -20 -20 -20 -20 -20 -20 -20 -20 -14 -11 -20 -20 -20 -18 -17 -7 -20 -20 -20 -20 -20 -20 -20 -20 -20 -20 -20 -20 -20 -20 -20 -20 -20 -20 -20 -20 -20 -20 -20 -20 -20 -20 -20
-20 -20 -20 -20 -19 -20 -20 -20 -20 -20 -20 -20 -20 -20 -20 -20 -20 -20 -20 -20 -20 -20 -20 -20 -20 -20 -20 -20 -20 -20 -20 -20 -20 -20 -20 -20 -20 -20 -20 -20 -20 -20 -20 -20 -20 -20 -20
-14 -5 -10 -18 -19 20 1 -20 -20 -20 -20 -20 -20 -20 -20 -20 -20 -20 -20 -20 -20 -19 4 -20 -20 -20 -20 -20 -20 -20 -20 -20 -20 -20 -20 -20 -20 -20 -20 -20 -20 -20 -20 -20 -20 -20 -20
-20 -20 -20 -20 -20 -19 -7 12 -20 -20 -20 -20 -20 -20 -20 -20 -20 -20 -20 -20 -20 -20 -20 -20 -20 -20 -20 -20 -20 -20 -20 -20 -20 -20 -20 -20 -20 -20 -20 -20 -20 -20 -20 -20 -20 -20 -20
-20 -20 -20 -20 -20 6 6 -9 -12 -20 -20 -20 -20 -20 -20 -20 -20 -20 -20 -20 -20 -20 -20 -20 -20 -20 -20 -20 -20 -20 -20 -20 -20 -20 -20 -20 -20 -20 -20 -20 -20 -20 -20 -20 -20 -20 -20
-20 -20 -20 -20 -20 -20 -8 5 6 -1 8 -20 -20 -20 -20 -20 -20 -20 -20 -20 -20 -20 -20 -20 -20 -20 -20 -20 -20 -20 -20 -20 -20 -20 -20 -20 -20 -20 -20 -20 -20 -20 -20 -20 -20 -20 -20
-20 -20 -20 -20 -20 -20 -20 -3 14 9 -6 -20 -20 -20 -20 -20 -20 -20 -20 -20 -20 -20 -20 -20 -20 -20 -20 -20 -20 -20 -20 -20 -20 -20 -20 -20 -20 -20 -20 -20 -20 -20 -20 -20 -20 -20 -20
-20 -20 -20 -20 -20 -20 -20 -7 15 14 11 -20 -1 -20 -20 -20 -20 -20 -20 -20 -20 -20 -20 -20 -20 -20 -20 -20 -20 -20 -20 -20 -20 -20 -20 -20 -20 -20 -20 -20 -20 -20 -20 -20 -20 -20 -20
-20 -20 -20 -20 -9 -8 -20 -20 8 16 10 -20 -17 22 -20 -19 -20 -20 -20 -20 -20 -20 -20 -20 -20 -20 -20 -20 -20 -20 -20 -20 -20 -20 -20 -20 -20 -20 -20 -20 -20 -20 -20 -20 -20 -20 -20
2 8 -20 -20 -20 -20 -17 -20 -20 -14 3 -20 -20 -20 -12 -20 -20 -20 -20 -20 -20 -20 -20 -20 -20 -20 -20 -20 -20 -20 -20 -20 -20 -20 -20 -20 -20 -20 -20 -20 -20 -20 -20 -20 -20 -20 -20
-6 -2 4 -20 -20 9 -19 9 -20 -20 -20 -20 -20 -17 -6 -18 -20 -20 -20 -20 -20 -20 -20 -20 -20 -20 -20 -20 -20 -20 -20 -20 -20 -20 -20 -20 -20 -20 -20 -20 -20 -20 -20 -20 -20 -20 -20
6 2 -7 2 -8 -20 -20 -12 -20 -20 -16 -17 7 -16 -5 -12 -19 -20 -20 -20 -20 -20 -20 -20 -20 -20 -20 -20 -20 -20 -20 -20 -20 -20 -20 -20 -20 -20 -20 -20 -20 -20 -20 -20 -20 -20 -20
-20 -14 -20 -20 -20 -20 -4 -20 -20 -15 -11 4 -17 -20 2 -20 -13 -20 -20 -20 -20 -20 -20 -20 -20 -20 -20 -20 -20 -20 -20 -20 -20 -20 -20 -20 -20 -20 -20 -20 -20 -20 -20 -20 -20 -20 -20
-20 -9 -20 -20 -20 -20 -20 2 -20 -20 -1 6 9 -20 -4 4 -2 -15 -20 -18 -20 -20 -20 -20 -20 -20 -20 -20 -20 -20 -20 -20 -20 -20 -20 -20 -20 -20 -20 -20 -20 -20 -20 -20 -20 -20 -20
-20 -3 -9 -20 -20 -20 -20 -20 -20 -20 -17 4 12 -20 -20 4 -0 -14 -13 -20 -20 -20 -20 -20 -19 -20 -20 -20 -20 -20 -20 -20 -20 -20 -20 -20 -20 -20 -20 -20 -20 -20 -20 -20 -20 -20 -16
-20 -19 0 -20 -20 -20 -20 -20 -20 -16 -20 -3 -20 -20 -15 10 -0 15 7 -13 -18 -6 -19 -20 -20 -20 -20 -20 -20 -20 -20 -20 -20 -20 -20 -20 -20 -20 -20 -20 -20 -20 -20 -20 -20 -20 -20
-20 -20 -15 -20 -20 -20 -20 -20 9 1 -7 21 -20 -12 -18 -6 12 19 2 -6 -9 5 -19 -20 -20 -20 -20 -20 -20 -20 -20 -20 -20 -20 -20 -20 -20 -20 -20 -20 -20 -20 -20 -20 -20 -20 -20
-20 -20 -20 -15 -20 15 -20 -20 19 -19 11 21 -11 -19 -20 12 20 1 28 -15 0 1 -8 -20 -20 -20 -20 -20 -20 -20 -20 -20 -20 -20 -20 -20 -20 -20 -20 -20 -20 -20 -20 -20 -20 -20 -20
-20 -20 2 9 -20 -20 -20 -20 -16 -9 20 10 23 1 -19 26 8 3 -2 -18 11 -19 -20 -20 -20 -20 -20 -20 -20 -20 -20 -20 -20 -20 -20 -20 -20 -20 -20 -20 -20 -20 -20 -20 -20 -20 -20
-20 -20 -20 -13 -20 -20 -20 -20 -20 -20 4 26 23 21 -7 12 2 -1 -17 7 15 -20 -20 -18 -20 -20 -20 -20 -20 -20 -20 -20 -20 -20 -20 -20 -20 -20 -20 -20 -20 -20 -20 -20 -20 -20 -20
-20 -20 -20 -20 -20 -20 -20 -20 -20 -20 -20 -20 28 19 -11 -0 17 22 -6 -16 5 -13 -20 -20 -14 -15 -2 -2 -10 -20 -20 -20 -20 -20 -20 -20 -20 -20 -20 -20 -20 -20 -20 -20 -20 -20 -20
-20 -20 -20 -20 -20 -20 -20 -20 -20 -20 -20 -20 9 18 27 29 23 -13 12 24 -20 -20 -20 -20 -20 -19 -5 4 28 27 26 -3 -20 -20 -20 -16 -20 -20 -20 -20 -20 -20 -20 -20 -20 -20 -20
-20 -20 -20 -20 -20 -20 -20 -20 -20 -20 -20 -20 -20 -18 5 -12 8 6 -8 -20 -18 -13 -20 -20 -18 -10 -4 15 20 1 -9 -4 -15 -20 -20 -20 -18 -15 -20 -20 -20 -19 -20 -20 -20 -20 -20
-20 -20 -20 -20 -20 -20 -20 -20 -20 -20 -20 -20 -20 -20 -6 3 4 -2 -0 -0 -19 5 5 -20 -20 -20 -13 -20 -20 -20 -20 -20 -20 -20 -20 -20 -20 -20 -20 -15 -20 -20 -20 -20 -20 -20 -20
-20 -20 -20 -20 -20 -20 -20 -20 -20 -3 -20 -20 -20 -20 -20 -20 -20 -20 -20 -19 -20 -20 -20 -20 -20 -20 -20 -20 -20 -20 -20 -20 -20 -20 -20 -20 -20 -20 -20 -19 -20 -20 -20 -20 -20 -20 -20
4 -20 -15 -18 -18 -20 -20 -20 -20 -20 -20 -20 -20 -20 -18 -20 -20 -20 -20 -20 -20 -20 -20 -20 -20 -20 -20 -20 -20 -20 -20 -20 -20 -20 -20 -20 -20 -20 -20 8 -12 -20 -20 -20 -20 -20 -20
-20 2 -9 20 -20 -20 -20 -20 -20 9 -2 -20 -20 -20 -20 -20 -20 -20 -20 -20 -20 -20 -20 -20 -20 -20 -20 -20 -20 -20 -20 -20 -20 -20 -20 -20 -20 -20 -11 -11 -20 -20 -20 -20 -20 -20 -20
-20 -20 -20 -20 -20 -20 -20 -20 15 -19 -5 -18 -20 -20 -12 8 -20 -20 -20 -20 -20 -20 -20 -20 -20 -20 -20 -20 -20 -20 -20 -20 -20 -20 -20 -20 -20 -20 -19 1 2 -20 -20 -20 -20 -20 -20
-20 -20 -20 -20 -20 -5 -20 -20 -20 -20 -20 -11 -20 -18 10 -1 -20 -20 -20 -20 -20 -20 -20 -20 -20 -19 -20 11 -1 -20 -20 -20 -20 -20 -20 -20 -20 -20 -20 -20 -20 -20 -20 -20 -20 -20 -20
Wind_Speed
4 5 6 8 11 11 9 9 8 7 9 8 9 11 13 12 13 16 16 16 16 15 14 14 14 15 5 2 2 3 8 10 5 5 8 5 8 3 4 2 3 2 3 4 6 8 7
4 5 7 9 11 10 8 10 10 10 10 10 9 9 12 14 15 16 16 16 16 15 14 13 12 11 1 0 0 2 6 5 6 5 8 7 4 2 4 1 2 2 5 7 6 3 5
9 9 10 11 16 9 10 9 9 9 11 11 10 10 10 13 17 18 18 16 15 14 13 11 8 2 2 1 3 4 4 3 3 3 4 3 2 2 1 2 3 3 7 6 2 0 5
10 11 10 10 12 12 13 12 9 10 10 11 12 12 13 13 15 19 19 18 16 13 9 6 4 1 2 1 1 3 4 2 4 3 3 1 2 2 2 2 5 4 4 7 2 5 2
10 11 12 11 12 11 13 14 10 10 12 12 11 13 14 14 16 18 20 20 12 2 1 2 1 2 2 3 1 1 2 2 4 2 2 2 2 2 4 4 6 8 2 3 10 1 3
9 10 10 12 12 12 13 14 14 15 13 12 12 12 13 14 15 18 20 11 3 2 1 1 1 3 2 1 1 0 2 2 2 3 2 4 5 3 4 6 2 4 4 4 7 6 2
8 9 11 11 13 14 13 12 14 14 14 14 10 9 10 13 15 18 9 4 6 3 5 1 1 2 1 1 1 1 1 3 2 3 3 3 6 2 4 3 3 2 3 5 9 7 7
10 11 12 12 13 13 14 14 13 13 14 13 11 8 9 11 15 15 3 5 2 3 8 3 4 3 3 1 3 1 1 1 2 1 1 6 1 2 3 1 2 3 4 7 8 3 5
11 13 13 15 15 13 13 13 14 13 13 13 10 11 8 11 13 5 3 3 1 3 2 7 3 2 2 4 3 2 3 2 2 1 1 3 1 2 1 1 3 3 5 4 7 8 4
13 13 13 14 15 16 15 12 12 16 11 12 12 11 6 12 3 2 1 3 2 2 6 8 1 1 2 3 1 1 1 1 1 1 0 4 3 1 1 3 6 3 4 5 6 6 3
15 13 12 14 15 14 14 14 12 12 12 11 13 9 3 3 2 1 1 3 1 3 5 6 2 1 2 2 4 1 2 3 2 2 4 4 1 1 2 4 5 8 2 5 1 3 4
13 12 13 15 18 13 13 13 11 11 11 13 13 6 3 1 0 2 1 1 3 9 8 3 2 2 2 1 2 2 2 3 2 2 1 6 3 2 5 1 4 5 5 3 4 3 3
13 12 13 14 15 7 10 11 10 11 11 12 12 3 4 2 2 1 1 3 7 5 4 2 3 3 2 4 3 3 3 2 4 4 3 4 3 2 3 1 1 4 6 6 8 6 6
13 12 12 12 12 11 11 7 9 12 11 11 9 5 3 2 1 1 2 4 2 4 4 2 2 3 3 5 2 4 2 3 3 3 3 4 8 5 4 5 3 1 5 6 6 3 7
12 13 13 14 12 11 11 12 12 12 10 9 1 2 1 3 4 2 2 3 7 5 3 4 2 1 2 2 2 2 4 4 6 9 6 4 6 3 3 2 5 2 2 2 1 1 3
11 12 13 13 13 11 11 11 11 12 9 5 2 1 3 2 5 2 1 5 5 4 4 4 2 1 2 1 2 1 2 3 3 7 1 4 3 2 3 3 1 4 6 2 2 4 6
10 12 11 13 13 12 8 10 9 9 9 5 2 0 2 3 3 1 5 5 5 2 4 2 1 2 1 1 2 3 2 4 3 2 4 4 4 4 1 5 7 3 2 3 3 5 5
8 11 10 11 13 15 14 12 12 12 10 4 1 1 2 2 2 2 3 4 3 3 4 2 2 2 2 1 2 3 5 4 5 4 5 3 4 4 9 5 3 3 5 6 4 5 5
6 7 9 10 14 15 16 17 17 15 8 1 2 0 1 1 4 3 2 1 2 2 2 1 2 2 1 2 4 5 3 2 5 1 1 2 0 4 8 4 2 3 5 4 2 3 14
5 6 6 8 11 13 14 15 17 17 14 2 1 0 1 1 1 1 1 4 3 3 1 3 3 1 5 12 6 4 2 1 5 3 5 2 4 7 8 7 3 4 4 8 5 5 15
4 5 6 7 9 10 12 14 16 17 14 3 1 2 2 1 2 2 2 1 3 4 2 5 1 4 6 4 2 5 1 6 3 7 4 4 3 5 7 6 5 10 11 16 16 21 13
3 5 6 6 8 10 11 13 15 17 12 3 1 1 1 1 2 1 5 4 6 4 4 4 4 4 2 4 3 3 4 1 3 6 3 5 3 3 5 9 11 17 14 19 19 20 18
2 3 4 5 6 7 9 11 13 16 8 3 2 2 1 2 1 0 1 3 1 2 4 4 1 2 6 7 3 6 7 5 5 1 2 3 3 2 5 2 8 13 14 12 5 8 8
4 2 1 2 3 5 7 9 10 12 8 2 2 0 1 2 2 2 1 2 2 0 3 4 1 3 1 3 3 3 5 11 12 13 12 6 4 3 7 3 11 7 4 8 11 16 7
6 5 4 3 2 3 4 5 6 8 8 3 2 1 1 2 2 4 1 1 4 4 4 4 7 4 3 3 2 5 3 3 8 14 16 15 7 3 4 5 16 11 14 4 3 18 7
6 7 7 6 5 6 6 4 3 4 4 3 1 2 1 1 4 3 1 1 1 2 4 5 4 3 1 1 2 4 4 3 5 4 1 6 11 6 2 5 6 4 2 1 3 11 4
6 6 6 5 4 6 6 5 6 6 2 3 1 3 4 0 4 2 2 3 2 1 2 4 6 7 1 3 3 4 5 5 6 6 5 4 4 12 11 9 9 6 8 2 4 7 3
7 6 6 6 6 7 6 6 6 5 6 3 2 3 3 2 6 6 4 4 1 2 2 3 5 4 2 1 3 5 4 7 5 7 7 9 6 6 6 7 15 5 2 8 6 4 4
9 8 8 8 8 9 9 9 8 6 6 5 1 1 2 2 6 4 7 12 10 10 5 3 5 2 3 4 0 3 3 2 4 5 7 10 13 6 10 8 3 2 6 6 3 14 14
Wind_Direction
294 303 299 303 312 319 309 323 327 324 325 334 343 339 337 337 335 338 336 331 328 327 328 328 331 337 353 31 293 334 345 345 357 3 36 27 41 35 78 7 357 57 303 304 280 298 259
301 305 301 312 309 302 296 303 317 320 323 328 332 343 337 334 335 336 332 328 326 322 321 321 324 337 359 153 231 339 355 353 9 27 25 33 64 23 95 95 67 305 282 280 291 267 270
30 30 18 356 5 326 300 290 303 313 321 327 327 334 340 335 333 334 330 325 320 316 314 314 321 7 35 165 350 341 356 354 4 26 51 37 28 69 138 33 355 333 340 324 223 193 298
353 347 347 349 351 350 351 326 283 299 307 315 321 326 333 335 332 331 328 322 311 304 304 309 328 60 234 31 320 333 347 350 354 22 72 344 17 95 80 297 21 25 50 2 295 334 357
343 342 338 329 323 326 343 344 322 287 299 305 310 318 324 330 328 327 326 321 315 267 329 318 8 36 274 349 17 96 38 351 321 5 19 323 53 68 21 57 22 9 278 321 317 222 257
343 337 334 328 320 308 311 329 338 342 299 293 302 309 319 325 326 324 328 327 295 16 99 163 257 16 334 304 150 66 16 48 26 334 51 46 45 59 27 52 239 302 333 282 259 285 304
331 329 323 320 318 319 304 312 308 324 319 321 275 297 313 322 326 329 350 12 13 344 32 239 254 252 239 301 71 47 357 7 25 39 51 18 59 175 193 177 162 169 235 250 259 274 300
328 321 319 316 312 311 310 303 301 312 327 336 294 297 307 320 326 333 36 63 96 205 313 313 243 255 251 167 326 229 70 93 41 67 55 18 189 180 136 219 223 203 269 279 288 236 319
324 315 312 309 316 306 302 302 294 304 324 328 329 312 304 320 322 25 37 54 42 137 273 300 245 203 184 132 231 270 146 132 113 83 106 162 216 101 105 315 291 255 203 242 254 336 280
326 317 301 302 302 301 307 291 293 292 306 325 320 322 308 326 51 317 2 333 17 97 56 282 240 259 111 149 220 106 210 94 75 91 317 231 295 117 120 250 134 304 200 271 296 23 289
334 334 337 329 318 296 297 292 295 297 302 305 310 305 276 23 270 114 278 326 64 58 18 260 189 148 121 177 140 20 8 45 169 141 88 261 95 262 257 222 163 239 326 287 329 162 18
346 344 342 335 315 280 295 289 284 294 305 299 297 300 192 163 51 241 329 340 56 44 259 324 119 182 143 202 189 118 116 63 100 65 343 252 289 214 212 250 203 328 329 42 61 101 3
358 346 346 348 352 315 299 295 283 294 310 305 293 259 191 172 237 191 83 41 35 140 308 249 186 169 235 181 205 194 168 177 172 67 354 314 237 257 171 6 118 53 37 339 350 5 237
5 358 347 343 347 340 329 315 293 297 307 309 309 304 243 255 116 62 65 58 166 252 249 310 139 146 200 158 209 177 176 277 218 106 98 104 331 186 171 204 183 109 136 155 243 270 288
9 8 7 0 345 336 331 314 306 304 297 301 336 24 248 238 196 61 152 162 215 216 298 355 321 99 296 199 201 156 222 233 205 183 149 131 280 293 197 147 122 163 180 197 122 190 295
13 9 8 10 2 348 337 320 310 308 307 278 94 189 228 326 147 121 164 232 225 218 9 9 306 238 202 33 131 152 242 219 253 194 176 165 306 258 310 117 93 169 156 48 9 288 293
12 15 15 15 11 1 347 339 329 328 314 159 98 266 331 327 107 134 213 235 248 233 76 308 291 299 2 69 134 181 232 297 278 162 159 136 138 277 258 194 191 136 194 79 115 153 205
22 19 17 28 33 28 33 9 352 342 319 124 228 220 343 323 212 208 181 188 317 342 76 345 282 219 241 254 271 265 227 222 2 163 164 204 151 223 223 242 170 142 189 154 157 252 228
18 28 38 39 38 34 29 24 17 8 26 23 284 57 1 258 193 231 343 266 284 297 266 308 315 314 69 253 257 206 216 43 11 42 88 161 223 337 336 16 54 144 173 173 179 121 250
31 22 30 34 45 35 22 22 16 6 357 69 22 204 353 240 37 221 88 221 247 356 332 345 276 244 253 272 263 288 286 268 8 16 341 136 189 195 225 237 255 231 238 262 190 240 285
33 37 19 32 36 34 24 17 11 3 1 68 58 345 357 268 198 257 180 160 188 218 36 12 269 73 17 259 249 233 236 349 4 359 48 71 230 230 254 263 255 257 254 256 246 247 240
44 34 30 32 28 25 28 24 12 5 357 80 46 298 241 343 317 259 203 202 221 230 176 206 187 240 221 253 287 331 5 186 286 348 50 28 298 318 266 249 254 269 266 258 254 262 253
129 43 33 40 34 31 26 28 17 13 25 59 21 1 275 253 209 81 277 246 123 39 256 242 321 327 228 237 274 270 244 208 228 207 266 200 231 299 267 314 304 284 240 239 238 211 216
196 220 283 342 17 24 24 23 24 26 48 84 50 18 327 314 219 242 225 347 294 265 296 310 265 207 303 2 301 268 242 227 220 227 214 207 184 192 279 35 268 246 285 221 244 272 251
219 225 239 258 283 327 2 16 19 25 52 77 317 92 135 273 275 285 234 190 331 344 279 266 265 250 334 310 278 325 306 286 246 230 226 217 208 244 245 197 281 295 282 173 73 300 291
236 244 260 272 294 315 312 317 345 5 61 88 357 317 88 74 263 331 308 13 235 254 303 257 310 306 225 170 161 191 230 248 271 306 177 190 211 207 145 258 264 251 245 187 176 298 3
254 253 261 278 290 288 284 284 297 298 303 117 215 121 89 137 279 173 233 186 181 230 262 313 340 336 114 176 201 204 230 208 224 213 200 153 152 214 222 240 266 234 262 221 124 243 301
271 271 272 276 284 286 276 276 284 307 315 125 252 189 150 207 269 207 208 192 255 148 146 277 3 337 332 177 205 221 217 225 222 202 196 201 192 195 213 231 257 230 84 171 228 306 267
258 266 272 279 283 278 277 273 273 285 292 117 224 289 140 193 252 225 218 228 213 206 174 218 215 291 263 265 344 304 284 259 214 254 232 238 217 201 189 211 236 214 258 278 292 290 293